Regional Weather Roundup
Issued by NWS Midland/Odessa, TX

Home | Current Version | Previous Version | Text Only | Print | Product List | Glossary On
Versions: 1 2 3 4 5 6 7 8 9 10 11 12 13 14 15 16 17 18 19 20 21 22 23 24 25 26 27 28 29 30 31 32 33 34 35 36 37 38 39 40 41 42 43 44 45 46 47 48 49 50
000
ASUS44 KMAF 181210
RWRMAF
MIDLAND AREA WEATHER ROUNDUP
NATIONAL WEATHER SERVICE MIDLAND TX
700 AM CDT SAT APR 18 2015

...IN SOUTHWEST TEXAS AND SOUTHEAST NEW MEXICO...

CITY           SKY/WX    TMP DP  RH WIND       PRES   REMARKS
ALPINE         PTCLDY    43  39  86 SW3       30.06F
ANDREWS        FAIR      53  31  42 NW12      29.96R
ARTESIA        CLEAR     39  27  60 W10       29.99S WCI  32
BIG SPRING     PTCLDY    57  55  92 SE6       29.95S
CARLSBAD       PTCLDY    44  26  49 W12       29.97S WCI  38
DRYDEN           N/A     63  61  93 NE8       29.91S
FORT STOCKTON  CLOUDY    57  31  37 W7        29.96R
GUAD PASS      CLEAR     49   8  19 W7        30.04R
HOBBS          CLEAR     41  32  70 NW9       29.97S WCI  35
MARFA          MOCLDY    45  34  65 NW7       30.04S
MIDLAND AIRPK  PTCLDY    55  55 100 S5        29.93F FOG
MIDLAND INTL   PTCLDY    50  48  93 CALM      29.92F
ODESSA         PTCLDY    52  43  71 CALM      29.94S
PECOS          PTCLDY    49  33  52 S6        29.93F
PRESIDIO       FAIR      57  41  54 N6        29.96R
SEMINOLE       PTCLDY    42  32  67 NW9       29.96R WCI  37
SNYDER         PTCLDY   N/A N/A N/A SW5       29.93S
WINK           MOCLDY    54  25  32 W3        29.92F
$$
...OTHER STATIONS IN TEXAS...

CITY           SKY/WX    TMP DP  RH WIND       PRES   REMARKS
ABILENE        CLOUDY    60  59  96 S5        29.94S FOG
AMARILLO       CLEAR     42  41  96 SW5       29.94S FOG     WCI  39
AUSTIN         CLOUDY    65  65 100 NE7       29.86R FOG
BROWNSVILLE    CLOUDY    74  72  93 E5        29.82S
CORPUS CHRISTI CLOUDY    70  68  93 N3        29.82R
DALLAS FTW     PTCLDY    59  58  96 NE5       29.88S
DEL RIO        CLOUDY    64  63  96 N7        29.88F
EL PASO        PTCLDY    50  10  20 SW9       29.99S
HOUSTON INT    MOCLDY    68  66  93 NE3       29.84R
LUBBOCK        FOG       45  45 100 NW12      29.93S VSB 3/4 WCI  39
SAN ANGELO     PTCLDY    57  55  93 SE5       29.93F
SAN ANTONIO    CLOUDY    68  65  90 CALM      29.86S FOG
WACO           PTCLDY    62  61  96 N6        29.87S
WICHITA FALLS  NOT AVBL
$$
...OTHER LOCATIONS IN NEW MEXICO...

CITY           SKY/WX    TMP DP  RH WIND       PRES   REMARKS
ALAMAGORDO     PTCLDY    39  19  45 SE7       30.00R WCI  34
ALBUQUERQUE    CLOUDY    37  24  59 CALM      29.99S
CANNON AFB     NOT AVBL
CLOVIS         CLEAR     34  21  60 W3        29.97S
HOLLOMAN AFB   PTCLDY    40  20  44 SE7       29.98R WCI  36
ROSWELL        CLEAR     40  29  64 CALM      29.98S
RUIDOSO        CLEAR     36  14  41 S6        30.04S WCI  31
SANTA FE       LGT SNOW  32  30  92 N10       29.99R VSB 3/4 WCI  24
TRUTH OR CONSE CLEAR     45  17  32 NW10      30.00S WCI  40
TUCUMCARI      CLEAR     37  19  48 W6        29.93F WCI  32
$$


USA.gov is the U.S. government's official web portal to all federal, state and local government web resources and services.